FW8607 Weather Reports


Display with metric or nautical units.
time (UTC)temp
F
wind
direction
speed
MPH
gust
MPH
rain 1hr
in
rain 24hr
in
rain mn
in
humidity
%
barometer
mb
20260502123103 56 180 1.0 3.0 0.00 0.00 0.00 94 1013.1
20260502120123 56 180 1.0 3.0 0.00 0.00 0.00 94 1012.9
20260502113122 56 180 2.0 4.0 0.00 0.00 0.00 94 1012.9
20260502110103 56 180 1.0 3.0 0.00 0.00 0.00 93 1013.0
20260502103121 56 180 1.0 3.0 0.00 0.00 0.00 93 1012.8
20260502063101 57 0.0 0.0 0.00 0.00 0.00 92 1013.2
20260502053101 57 0.0 0.0 0.00 0.00 0.00 91 1013.2
20260502050101 57 0.0 2.0 0.00 0.00 0.00 90 1013.3
20260502043102 57 248 2.0 4.0 0.00 0.00 0.00 90 1012.9
20260502033101 58 270 4.0 8.0 0.00 0.00 0.00 88 1012.6
20260502030121 59 248 5.0 12.0 0.00 0.00 0.00 86 1012.3
20260502023121 61 248 6.0 11.0 0.00 0.00 0.00 82 1011.9
20260502020100 64 248 7.0 14.0 0.00 0.00 0.00 78 1011.8
20260502013100 66 248 7.0 13.0 0.00 0.00 0.00 74 1011.6
20260502010101 67 248 9.0 16.0 0.00 0.00 0.00 72 1011.4
20260502003101 70 248 8.0 14.0 0.00 0.00 0.00 68 1011.3
20260502000100 71 248 8.0 15.0 0.00 0.00 0.00 66 1011.4
20260501233100 72 248 7.0 14.0 0.00 0.00 0.00 64 1011.3
20260501230100 72 248 8.0 15.0 0.00 0.00 0.00 64 1011.4
20260501223100 73 248 8.0 16.0 0.00 0.00 0.00 61 1011.8
20260501220100 73 248 7.0 17.0 0.00 0.00 0.00 61 1012.0
20260501213100 73 270 8.0 16.0 0.00 0.00 0.00 60 1012.3
20260501210100 74 293 7.0 14.0 0.00 0.00 0.00 59 1012.4
20260501203059 73 293 8.0 15.0 0.00 0.00 0.00 60 1012.4
20260501200100 72 338 6.0 11.0 0.00 0.00 0.00 62 1012.7
20260501193059 70 293 6.0 13.0 0.00 0.00 0.00 65 1012.8
20260501190101 68 338 8.0 16.0 0.00 0.00 0.00 69 1013.2
20260501183059 66 293 6.0 13.0 0.00 0.00 0.00 72 1013.4
20260501180119 64 338 6.0 11.0 0.00 0.00 0.00 76 1013.6
20260501173059 62 293 5.0 12.0 0.00 0.00 0.00 78 1013.8
20260501170059 61 338 3.0 8.0 0.00 0.00 0.00 81 1014.0
20260501163059 59 270 3.0 8.0 0.00 0.00 0.00 87 1014.0
20260501160059 56 135 1.0 4.0 0.00 0.00 0.00 89 1014.0
20260501153059 56 135 1.0 6.0 0.00 0.00 0.00 91 1013.9
20260501150059 55 158 1.0 6.0 0.00 0.00 0.00 92 1013.8
20260501143059 55 113 2.0 7.0 0.00 0.00 0.00 93 1013.6
20260501140121 54 90 2.0 6.0 0.00 0.00 0.00 93 1013.5
20260501133201 54 158 2.0 5.0 0.00 0.00 0.00 93 1013.4
20260501130059 54 158 1.0 4.0 0.00 0.00 0.00 93 1013.4